Starlink 34203

operational
NORAD ID: 64246 Int'l Des: 2025-119 Owner: SPXS Country: US Constellation: starlink
LEOCIRCULAR

About Starlink 34203

Description loading...

Live Position

Loading 3D Globe...

Upcoming Passes

Altitude History

Altitude vs Time

uPlot chart will show altitude changes over time

Two-Line Element Set

1 64246U 25119P 26101.53504801 .00014237 00000-0 52548-3 0 9990
2 64246 43.0010 121.4676 0001130 300.7163 59.3578 15.27605720 49201
Epoch: Apr 11, 2026 • Age: 18 hours

Current Status

Altitude 485.5 km
Velocity 7.63 km/s
Sub-Earth Point 36.93°N, 55.76°W
Launch Date Jun 3, 2025
Age 0.8 years
Type internet

Technical Details

Classification Payload
Mass 575.00 kg
Dry Mass 530.00 kg
Total Mass 575.00 kg
Length 0.30 m
Diameter 4.10 m
Span 29.00 m
Shape Box + pan
Manufacturer SPXS
Bus Type Starlink V2MO
Phase Status In Orbit
Owner/State SPXS/US

Large Constellations

Loading constellations...